Glenwood, MN

11:57 PM CDT on September 22, 2017 (GMT -0500)
Glenwood Municipal

Weather History for KGHW - July, 2014

Change the Weather History Date:

Friday, July 11, 2014

  Actual Average Record
Temperature  
Mean Temperature 76 °F -  
Max Temperature 84 °F 84 °F 98 °F (1976)
Min Temperature 68 °F 59 °F 48 °F (1988)
Cooling Degree Days 11    
Growing Degree Days 26 (Base 50)    
Moisture  
Dew Point 68 °F    
Average Humidity 80    
Maximum Humidity 94    
Minimum Humidity 62    
Precipitation  
Precipitation 0.26 in - - ()
Sea Level Pressure  
Sea Level Pressure 29.94 in    
Wind  
Wind Speed 11 mph (South)    
Max Wind Speed 21 mph    
Max Gust Speed 30 mph    
Visibility 10 miles    
Events Rain , Thunderstorm    
Averages and records for this station are not official NWS values.
T = Trace of Precipitation, MM = Missing Value Source: NWS Daily Summary

Daily Weather History Graph

Daily Weather History Graph

Search for Another Location

Airport or City:

Trip Planner

Search our weather history database for the weather conditions in past years. The results will help you decide how hot, cold, wet, or windy it might be!

Date:

Astronomy

Jul. 11, 2014 Rise Set
Actual Time 5:43 AM CDT 9:10 PM CDT
Civil Twilight 5:06 AM CDT 9:47 PM CDT
Nautical Twilight 4:17 AM CDT 10:35 PM CDT
Astronomical Twilight 3:14 AM CDT 11:38 PM CDT
Moon 8:17 PM CDT (7/11) 4:59 AM CDT (7/11)
Length of Visible Light 16h 40m
Length of Day
15h 27m
Waxing Gibbous, 99% of the Moon is Illuminated
Jul 11
Waxing Gibbous
Jul 12
Full
Jul 18
Last Quarter
Jul 26
New
Aug 3
First Quarter

Hourly Weather History & Observations

Time (CDT) Temp. Heat Index Dew Point Humidity Pressure Visibility Wind Dir Wind Speed Gust Speed Precip Events Conditions
12:15 AM 73.4 °F - 64.4 °F 73% 29.92 in 10.0 mi SSE 12.7 mph 20.7 mph N/A Thunderstorm Scattered Clouds
12:34 AM 73.4 °F - 64.4 °F 73% 29.92 in 10.0 mi SSE 15.0 mph 23.0 mph N/A Thunderstorm Thunderstorm
12:54 AM 73.4 °F - 64.4 °F 73% 29.92 in 10.0 mi SSE 13.8 mph - N/A Thunderstorm Thunderstorm
1:15 AM 71.6 °F - 64.4 °F 78% 29.90 in 10.0 mi SSE 19.6 mph 25.3 mph N/A Thunderstorm Thunderstorm
1:34 AM 71.6 °F - 64.4 °F 78% 29.89 in 10.0 mi South 19.6 mph 26.5 mph N/A   Clear
1:54 AM 71.6 °F - 64.4 °F 78% 29.88 in 10.0 mi South 18.4 mph 26.5 mph N/A   Clear
2:14 AM 71.6 °F - 64.4 °F 78% 29.88 in 10.0 mi South 19.6 mph 29.9 mph N/A   Scattered Clouds
2:54 AM 71.6 °F - 64.4 °F 78% 29.87 in 10.0 mi South 19.6 mph 25.3 mph N/A   Mostly Cloudy
3:15 AM 71.6 °F - 64.4 °F 78% 29.86 in 10.0 mi South 18.4 mph 26.5 mph N/A   Scattered Clouds
3:34 AM 71.6 °F - 64.4 °F 78% 29.86 in 10.0 mi South 18.4 mph 24.2 mph N/A Thunderstorm Scattered Clouds
3:54 AM 71.6 °F - 64.4 °F 78% 29.86 in 10.0 mi South 20.7 mph 26.5 mph N/A   Scattered Clouds
4:15 AM 71.6 °F - 64.4 °F 78% 29.86 in 10.0 mi South 18.4 mph 26.5 mph N/A Thunderstorm Thunderstorm
4:34 AM 69.8 °F - 64.4 °F 83% 29.89 in 10.0 mi SSW 12.7 mph 20.7 mph N/A Rain , Thunderstorm Light Thunderstorms and Rain
4:54 AM 69.8 °F - 66.2 °F 88% 29.89 in 10.0 mi South 12.7 mph - 0.26 in Thunderstorm Scattered Clouds
5:14 AM 69.8 °F - 66.2 °F 88% 29.89 in 10.0 mi South 12.7 mph 18.4 mph N/A Thunderstorm Scattered Clouds
5:34 AM 68.0 °F - 66.2 °F 94% 29.90 in 10.0 mi South 10.4 mph 17.3 mph N/A Rain Light Rain
5:54 AM 68.0 °F - 66.2 °F 94% 29.90 in 10.0 mi South 11.5 mph - N/A   Scattered Clouds
6:14 AM 68.0 °F - 66.2 °F 94% 29.90 in 7.0 mi South 11.5 mph - N/A   Scattered Clouds
6:35 AM 68.0 °F - 66.2 °F 94% 29.89 in 7.0 mi South 11.5 mph - N/A Thunderstorm Scattered Clouds
6:54 AM 68.0 °F - 66.2 °F 94% 29.89 in 7.0 mi South 10.4 mph - N/A   Scattered Clouds
7:14 AM 68.0 °F - 66.2 °F 94% 29.90 in 7.0 mi South 11.5 mph - N/A   Scattered Clouds
7:34 AM 69.8 °F - 66.2 °F 88% 29.91 in 7.0 mi South 11.5 mph - N/A   Clear
7:54 AM 69.8 °F - 66.2 °F 88% 29.92 in 7.0 mi South 9.2 mph - N/A   Scattered Clouds
8:15 AM 69.8 °F - 66.2 °F 88% 29.91 in 7.0 mi South 8.1 mph - N/A   Scattered Clouds
8:34 AM 69.8 °F - 66.2 °F 88% 29.92 in 7.0 mi South 8.1 mph - N/A   Scattered Clouds
8:54 AM 69.8 °F - 66.2 °F 88% 29.92 in 7.0 mi South 9.2 mph - N/A   Mostly Cloudy
9:15 AM 71.6 °F - 68.0 °F 88% 29.91 in 10.0 mi South 9.2 mph - N/A   Scattered Clouds
9:34 AM 71.6 °F - 68.0 °F 88% 29.91 in 10.0 mi South 10.4 mph - N/A   Scattered Clouds
9:54 AM 71.6 °F - 68.0 °F 88% 29.91 in 10.0 mi South 10.4 mph - N/A   Scattered Clouds
10:14 AM 71.6 °F - 68.0 °F 88% 29.91 in 10.0 mi South 10.4 mph - N/A   Scattered Clouds
10:34 AM 73.4 °F - 69.8 °F 88% 29.91 in 10.0 mi South 9.2 mph - N/A   Scattered Clouds
10:55 AM 75.2 °F - 69.8 °F 83% 29.92 in 10.0 mi South 6.9 mph - N/A   Clear
11:14 AM 75.2 °F - 69.8 °F 83% 29.93 in 10.0 mi SSW 6.9 mph - N/A   Clear
11:34 AM 77.0 °F - 69.8 °F 78% 29.93 in 10.0 mi WSW 3.5 mph - N/A   Clear
11:55 AM 78.8 °F - 69.8 °F 74% 29.93 in 10.0 mi SW 4.6 mph - N/A   Clear
12:14 PM 78.8 °F - 69.8 °F 74% 29.93 in 10.0 mi South 5.8 mph - N/A   Scattered Clouds
12:35 PM 77.0 °F - 69.8 °F 78% 29.94 in 10.0 mi South 5.8 mph - N/A   Scattered Clouds
12:54 PM 75.2 °F - 69.8 °F 83% 29.94 in 10.0 mi South 8.1 mph - N/A   Scattered Clouds
1:15 PM 75.2 °F - 69.8 °F 83% 29.95 in 10.0 mi South 9.2 mph - N/A   Clear
1:29 PM 75.2 °F - 69.8 °F 83% 29.95 in 10.0 mi South 10.4 mph - N/A   Clear
1:54 PM 77.0 °F - 71.6 °F 83% 29.96 in 10.0 mi South 9.2 mph - N/A   Clear
2:15 PM 78.8 °F - 71.6 °F 78% 29.96 in 10.0 mi South 9.2 mph - N/A   Scattered Clouds
2:34 PM 78.8 °F - 71.6 °F 78% 29.96 in 10.0 mi South 8.1 mph - N/A   Clear
2:54 PM 80.6 °F 84.6 °F 71.6 °F 74% 29.96 in 10.0 mi South 6.9 mph - N/A   Clear
3:14 PM 80.6 °F 84.6 °F 71.6 °F 74% 29.96 in 10.0 mi SSW 4.6 mph - N/A   Clear
3:34 PM 82.4 °F 87.2 °F 71.6 °F 70% 29.96 in 10.0 mi SSW 6.9 mph - N/A   Clear
3:55 PM 82.4 °F 87.2 °F 71.6 °F 70% 29.96 in 10.0 mi SSW 4.6 mph - N/A   Clear
3:56 PM 82.4 °F 87.2 °F 71.6 °F 70% 29.96 in 10.0 mi SSW 6.9 mph - N/A   Clear
5:25 PM - - - N/A% 29.96 in - WSW 3.5 mph - N/A   Unknown
5:34 PM 84.2 °F 88.4 °F 69.8 °F 62% 29.95 in 10.0 mi WSW 3.5 mph - N/A   Unknown
5:54 PM 82.4 °F 87.2 °F 71.6 °F 70% 29.95 in 10.0 mi West 3.5 mph - N/A   Clear
6:15 PM 84.2 °F 89.6 °F 71.6 °F 66% 29.95 in 10.0 mi Calm Calm - N/A   Clear
6:34 PM 82.4 °F 87.2 °F 71.6 °F 70% 29.96 in 10.0 mi WSW 3.5 mph - N/A   Clear
6:54 PM 84.2 °F 89.6 °F 71.6 °F 66% 29.96 in 10.0 mi Calm Calm - N/A   Clear
7:14 PM 82.4 °F 87.2 °F 71.6 °F 70% 29.97 in 10.0 mi Calm Calm - N/A   Clear
7:34 PM 84.2 °F 88.4 °F 69.8 °F 62% 29.97 in 10.0 mi Calm Calm - N/A   Clear
7:55 PM 82.4 °F 87.2 °F 71.6 °F 70% 29.98 in 10.0 mi Calm Calm - N/A   Clear
8:14 PM 82.4 °F 87.2 °F 71.6 °F 70% 29.99 in 10.0 mi Calm Calm - N/A   Clear
8:34 PM 80.6 °F 85.4 °F 73.4 °F 79% 29.99 in 10.0 mi Calm Calm - N/A   Scattered Clouds
8:55 PM 80.6 °F 84.6 °F 71.6 °F 74% 29.99 in 10.0 mi Calm Calm - N/A   Clear
9:14 PM 78.8 °F - 69.8 °F 74% 30.00 in 10.0 mi NW 3.5 mph - N/A   Clear
9:34 PM 77.0 °F - 69.8 °F 78% 30.01 in 10.0 mi NNW 3.5 mph - N/A   Clear
9:54 PM 75.2 °F - 69.8 °F 83% 30.01 in 10.0 mi Calm Calm - N/A   Clear
10:14 PM 75.2 °F - 69.8 °F 83% 30.02 in 10.0 mi Calm Calm - N/A   Scattered Clouds
10:35 PM 75.2 °F - 69.8 °F 83% 30.02 in 10.0 mi North 3.5 mph - N/A   Scattered Clouds
10:54 PM 75.2 °F - 69.8 °F 83% 30.02 in 10.0 mi Calm Calm - N/A   Clear
11:14 PM 75.2 °F - 69.8 °F 83% 30.03 in 10.0 mi Calm Calm - N/A   Clear
11:35 PM 73.4 °F - 69.8 °F 88% 30.03 in 10.0 mi Calm Calm - N/A   Clear
11:54 PM 71.6 °F - 69.8 °F 94% 30.03 in 10.0 mi Calm Calm - N/A   Clear